AirNav   Air Wisconsin pilot careers
 
 508 users online  

74T Hicks Airport
Ponder, Texas, USA

GOING TO PONDER?


FAA INFORMATION EFFECTIVE 06 DECEMBER 2018

Location

FAA Identifier: 74T
Lat/Long: 33-10-58.8400N / 097-15-16.6050W
33-10.980667N / 097-15.276750W
33.1830111 / -97.2546125
(estimated)
Elevation: 725 ft. / 221 m (estimated)
Variation: 07E (1990)
From city: 2 miles E of PONDER, TX
Time zone: UTC -6 (UTC -5 during Daylight Saving Time)
Zip code: 76259

Airport Operations

Airport use: Open to the public
Activation date: 09/1995
Control tower: no
ARTCC: FORT WORTH CENTER
FSS: FORT WORTH FLIGHT SERVICE STATION
NOTAMs facility: FTW (NOTAM-D service available)
Attendance: UNATNDD
Segmented circle: no

Airport Communications

CTAF: 122.9
WX ASOS at DTO (3 nm E): 119.325 (940-383-8457)
WX ASOS at AFW (12 nm S): PHONE 817-491-6188
WX AWOS-3 at LUD (17 nm W): 118.225 (940-627-2365)

Nearby radio navigation aids

VOR radial/distance  VOR name  Freq  Var
FUZr342/18.0RANGER VORTAC115.7006E
TTTr324/21.7MAVERICK VOR/DME113.1006E
CVEr309/24.9COWBOY VOR/DME116.2006E
UKWr121/35.4BOWIE VORTAC117.1506E

 
NDB name  Hdg/Dist  Freq  Var  ID
PINCK202/6.725704EDT -.. -
MELISA259/33.842103EVLY ...- .-.. -.--

Airport Services

Runway Information

Runway 17/35

Dimensions: 2364 x 90 ft. / 721 x 27 m
Surface: turf
RUNWAY 17  RUNWAY 35
Latitude: 33-11.175667N33-10.785667N
Longitude: 097-15.275000W097-15.278500W
Elevation: 704.0 ft.724.0 ft.
Traffic pattern: rightleft
Obstructions: 15 ft. trees, 40 ft. right of centerline4 ft. fence

Airport Ownership and Management from official FAA records

Ownership: Privately-owned
Owner: MARK HICKS
7420 FM 2449
PONDER, TX 76259
Phone 940-479-2114
Manager: MARK HICKS
7420 FM 2449
PONDER, TX 76259
Phone 940-479-2114

Additional Remarks

FOR CD CTC REGIONAL APCH AT 972-615-2799.
TFC IN THE PAT SHALL REMAIN AT OR BELOW 1,300 FT MSL.
RY NOT MOWED, INDISTINGUISHABLE FROM SURROUNDING TERRAIN.
10 BRUSH GROWING ON RWY.
20 FT TREES, 40 FT R AND L OF RY CNTRLN.
6 FT WASHOUT ALONG W SIDE OF RY.
RY NOT SUITABLE FOR ACFT.

Instrument Procedures

There are no published instrument procedures at 74T.

Some nearby airports with instrument procedures:

KDTO - Denton Enterprise Airport (3 nm E)
KAFW - Fort Worth Alliance Airport (12 nm S)
KLUD - Decatur Municipal Airport (17 nm W)
4T2 - Kenneth Copeland Airport (17 nm SW)
KDFW - Dallas-Fort Worth International Airport (20 nm SE)
 
Loc | Ops | Rwys | IFR | FBO | Links
Com | Nav | Svcs | Stats | Notes


 
Area around 74T (Hicks Airport)
 
Road maps at: MapQuest Bing Google
 
Aerial photo
No photo
 
Sectional chart

 
Airport distance calculator
Flying to Hicks Airport? Find the distance to fly.

From to 74T

Sunrise and sunset
Times for 18-Dec-2018
 Local
(UTC-6)
 Zulu
(UTC)
Morning civil twilight07:0013:00
Sunrise07:2813:28
Sunset17:2323:23
Evening civil twilight17:5123:51

Current date and time
Zulu (UTC)  19-Dec-2018 05:56:16
Local (UTC-6)  18-Dec-2018 23:56:16
 
METAR
KDTO 
3nm E 
190453Z AUTO 12007KT 10SM FEW031 11/06 A2998 RMK AO2 SLP149 T01060061
KAFW 
13nm S 
190453Z 15006KT 10SM BKN180 10/07 A2997 RMK AO2 SLP149 T01000067
KLUD 
17nm W 
118.22 940-927-2365
190535Z AUTO 14003KT 10SM CLR 11/07 A2994 RMK AO2 T01080074
TAF
KAFW 
13nm S 
190306Z 1903/1924 14007KT P6SM SCT120 BKN250 FM190700 17006KT 6SM -SHRA BR BKN011 FM191100 16005KT 5SM BR VCSH OVC008 FM191800 19005KT P6SM BKN015 BKN250
NOTAMs
Click for the latest NOTAMs
NOTAMs are issued by the DoD/FAA and will open in a separate window not controlled by AirNav.

 

 
 

Would you like to see your business listed on this page?

 If your business provides an interesting product or service to pilots, flight crews, aircraft, or users of the Hicks Airport, you should consider listing it here.  To start the listing process, click on the button below
 
Add a business
 

Other Pages about Hicks Airport

Update a link
 
Copyright © AirNav, LLC. All rights reserved. Privacy Policy  Contact